Akron, OH

4:21 PM EDT on May 22, 2018 (GMT -0400)
Akron Fulton International

Weather History for KAKR - December, 2012

Change the Weather History Date:

Wednesday, December 19, 2012

  Actual Average (KCAK) Record (KCAK)
Temperature  
Mean Temperature 38 °F -  
Max Temperature 42 °F 37 °F 58 °F (1939)
Min Temperature 33 °F 23 °F -2 °F (1963)
Degree Days  
Heating Degree Days 28    
Moisture  
Dew Point 35 °F    
Average Humidity 85    
Maximum Humidity 93    
Minimum Humidity 67    
Precipitation  
Precipitation 0.06 in - - ()
Sea Level Pressure  
Sea Level Pressure 29.97 in    
Wind  
Wind Speed 5 mph (West)    
Max Wind Speed 10 mph    
Max Gust Speed -    
Visibility 7 miles    
Events Rain    
Averages and records for this station are not official NWS values.
T = Trace of Precipitation, MM = Missing Value Source: NWS Daily Summary

Daily Weather History Graph

Daily Weather History Graph

Search for Another Location

Airport or City:

Astronomy

Dec. 19, 2012 Rise Set
Actual Time 7:46 AM EST 4:59 PM EST
Civil Twilight 7:15 AM EST 5:31 PM EST
Nautical Twilight 6:40 AM EST 6:05 PM EST
Astronomical Twilight 6:07 AM EST 6:39 PM EST
Moon 11:51 AM EST (12/19) No Moon Set
Length of Visible Light 10h 15m
Length of Day
9h 13m
Waxing Crescent, 45% of the Moon is Illuminated
Dec 19
Waxing Crescent
Dec 20
First Quarter
Dec 28
Full
Jan 4
Last Quarter
Jan 11
New

Hourly Weather History & Observations

Time (EST) Temp. Windchill Dew Point Humidity Pressure Visibility Wind Dir Wind Speed Gust Speed Precip Events Conditions
12:05 AM 37.4 °F 32.8 °F 33.8 °F 87% 29.74 in 8.0 mi South 5.8 mph - 0.00 in   Overcast
12:54 AM 37.0 °F 32.4 °F 33.1 °F 86% 29.74 in 8.0 mi SSW 5.8 mph - 0.01 in Rain Light Rain
1:32 AM 37.4 °F 32.8 °F 33.8 °F 87% 29.73 in 6.0 mi South 5.8 mph - 0.01 in Rain Light Rain
1:54 AM 37.0 °F 33.3 °F 34.0 °F 89% 29.76 in 7.0 mi SSW 4.6 mph - 0.02 in Rain Light Rain
2:54 AM 37.0 °F - 34.0 °F 89% 29.79 in 7.0 mi Calm Calm - 0.03 in   Overcast
3:54 AM 37.0 °F - 35.1 °F 93% 29.79 in 6.0 mi Calm Calm - N/A   Overcast
4:54 AM 37.9 °F 35.5 °F 35.1 °F 89% 29.81 in 8.0 mi SW 3.5 mph - N/A   Overcast
5:54 AM 37.9 °F 35.5 °F 35.1 °F 89% 29.85 in 7.0 mi West 3.5 mph - N/A   Overcast
6:30 AM 37.4 °F 34.9 °F 35.6 °F 93% 29.85 in 6.0 mi West 3.5 mph - N/A   Overcast
6:38 AM 37.4 °F 34.9 °F 35.6 °F 93% 29.86 in 6.0 mi West 3.5 mph - N/A   Overcast
6:54 AM 37.9 °F 35.5 °F 35.1 °F 89% 29.89 in 6.0 mi West 3.5 mph - N/A   Overcast
7:03 AM 37.4 °F 33.8 °F 35.6 °F 93% 29.88 in 6.0 mi WNW 4.6 mph - N/A   Overcast
7:22 AM 39.2 °F 37.0 °F 35.6 °F 87% 29.88 in 6.0 mi West 3.5 mph - N/A   Overcast
7:54 AM 37.9 °F 35.5 °F 36.0 °F 93% 29.92 in 6.0 mi WNW 3.5 mph - N/A   Overcast
8:33 AM 39.2 °F 35.9 °F 35.6 °F 87% 29.92 in 4.0 mi West 4.6 mph - N/A   Overcast
8:54 AM 39.0 °F 36.8 °F 36.0 °F 89% 29.95 in 4.0 mi WSW 3.5 mph - N/A   Overcast
9:51 AM 39.2 °F 35.9 °F 35.6 °F 87% 29.95 in 5.0 mi West 4.6 mph - N/A   Overcast
9:54 AM 39.9 °F 36.7 °F 36.0 °F 86% 29.98 in 5.0 mi WSW 4.6 mph - N/A   Overcast
10:19 AM 39.2 °F 33.6 °F 35.6 °F 87% 29.97 in 5.0 mi West 8.1 mph - N/A   Overcast
10:35 AM 39.2 °F 34.2 °F 35.6 °F 87% 29.98 in 6.0 mi West 6.9 mph - N/A   Overcast
10:46 AM 39.2 °F 35.0 °F 35.6 °F 87% 29.99 in 5.0 mi West 5.8 mph - N/A   Overcast
10:54 AM 39.9 °F 35.8 °F 36.0 °F 86% 30.01 in 5.0 mi West 5.8 mph - N/A   Overcast
11:54 AM 41.0 °F 35.2 °F 36.0 °F 82% 30.02 in 7.0 mi West 9.2 mph - N/A   Overcast
12:19 PM 42.8 °F 37.5 °F 35.6 °F 76% 30.01 in 7.0 mi West 9.2 mph - N/A   Overcast
12:27 PM 42.8 °F 37.0 °F 35.6 °F 76% 30.01 in 7.0 mi WNW 10.4 mph - N/A   Overcast
12:39 PM 41.0 °F 34.7 °F 35.6 °F 81% 30.02 in 7.0 mi West 10.4 mph - N/A   Overcast
12:54 PM 42.1 °F 36.1 °F 35.1 °F 76% 30.04 in 7.0 mi West 10.4 mph - N/A   Overcast
1:54 PM 41.0 °F 35.2 °F 35.1 °F 79% 30.05 in 7.0 mi West 9.2 mph - N/A   Overcast
2:24 PM 41.0 °F 36.4 °F 35.6 °F 81% 30.04 in 8.0 mi West 6.9 mph - N/A   Overcast
2:54 PM 41.0 °F 37.1 °F 34.0 °F 76% 30.06 in 8.0 mi West 5.8 mph - N/A   Overcast
3:54 PM 42.1 °F 39.2 °F 32.0 °F 67% 30.08 in 10.0 mi NW 4.6 mph - N/A   Overcast
4:54 PM 41.0 °F 39.0 °F 33.1 °F 73% 30.09 in 10.0 mi WNW 3.5 mph - N/A   Overcast
5:54 PM 39.0 °F - 34.0 °F 82% 30.12 in 9.0 mi Calm Calm - N/A   Overcast
6:54 PM 39.9 °F - 34.0 °F 79% 30.14 in 8.0 mi Calm Calm - N/A   Overcast
7:43 PM 39.2 °F - 33.8 °F 81% 30.13 in 8.0 mi Calm Calm - N/A   Overcast
7:54 PM 39.0 °F - 34.0 °F 82% 30.15 in 8.0 mi Calm Calm - N/A   Overcast
8:43 PM 33.8 °F - 30.2 °F 87% 30.12 in 7.0 mi Calm Calm - N/A   Scattered Clouds
8:54 PM 35.1 °F - 32.0 °F 89% 30.14 in 6.0 mi Calm Calm - N/A   Partly Cloudy
9:54 PM 36.0 °F 33.3 °F 33.1 °F 89% 30.14 in 7.0 mi ESE 3.5 mph - N/A   Clear
10:54 PM 36.0 °F 33.3 °F 32.0 °F 86% 30.14 in 6.0 mi East 3.5 mph - N/A   Clear
11:54 PM 36.0 °F 32.1 °F 32.0 °F 86% 30.13 in 6.0 mi East 4.6 mph - N/A   Partly Cloudy